Time,TemperatureF,DewpointF,PressureIn,WindDirection,WindDirectionDegrees,WindSpeedMPH,WindSpeedGustMPH,Humidity,HourlyPrecipIn,Conditions,Clouds,dailyrainin,SoftwareType,DateUTC
2013-04-21 00:04:00,40.3,32.0,29.62,SSE,147,8.0,8.0,72,0.00,CLR,,0.00,WeatherDisplay:10.37,2013-04-21 05:04:00,
2013-04-21 00:09:00,40.3,32.0,29.62,SE,146,8.0,8.0,72,0.00,CLR,,0.00,WeatherDisplay:10.37,2013-04-21 05:09:00,
2013-04-21 00:14:00,40.1,31.8,29.65,SSE,149,9.0,9.0,72,0.00,CLR,,0.00,WeatherDisplay:10.37,2013-04-21 05:14:00,
2013-04-21 00:19:00,40.1,31.8,29.65,SE,144,9.0,9.0,72,0.00,CLR,,0.00,WeatherDisplay:10.37,2013-04-21 05:19:00,
2013-04-21 00:24:00,40.1,31.8,29.65,SE,140,9.0,9.0,72,0.00,CLR,,0.00,WeatherDisplay:10.37,2013-04-21 05:24:00,
2013-04-21 00:29:00,40.1,31.4,29.65,SE,136,9.0,9.0,71,0.00,CLR,,0.00,WeatherDisplay:10.37,2013-04-21 05:29:00,
2013-04-21 00:34:00,40.3,31.6,29.65,SE,144,9.0,10.0,71,0.00,CLR,,0.00,WeatherDisplay:10.37,2013-04-21 05:34:00,
2013-04-21 00:39:00,40.3,31.6,29.65,SSE,149,9.0,10.0,71,0.00,CLR,,0.00,WeatherDisplay:10.37,2013-04-21 05:39:00,
2013-04-21 00:44:00,40.1,31.1,29.65,SE,137,10.0,10.0,70,0.00,CLR,,0.00,WeatherDisplay:10.37,2013-04-21 05:44:00,
2013-04-21 00:49:00,40.1,31.4,29.65,SE,141,10.0,10.0,71,0.00,CLR,,0.00,WeatherDisplay:10.37,2013-04-21 05:49:00,
2013-04-21 00:54:00,40.1,31.4,29.65,SE,144,10.0,10.0,71,0.00,CLR,,0.00,WeatherDisplay:10.37,2013-04-21 05:54:00,
2013-04-21 00:59:00,40.1,31.4,29.65,SE,146,10.0,11.0,71,0.00,CLR,,0.00,WeatherDisplay:10.37,2013-04-21 05:59:00,
2013-04-21 01:04:00,40.1,31.4,29.62,SE,141,10.0,11.0,71,0.00,CLR,,0.00,WeatherDisplay:10.37,2013-04-21 06:04:00,
2013-04-21 01:09:00,39.9,31.3,29.62,SE,141,10.0,11.0,71,0.00,CLR,,0.00,WeatherDisplay:10.37,2013-04-21 06:09:00,
2013-04-21 01:14:00,39.9,31.6,29.62,SSE,158,12.0,12.0,72,0.00,CLR,,0.00,WeatherDisplay:10.37,2013-04-21 06:14:00,
2013-04-21 01:19:00,39.9,31.6,29.62,SSE,152,12.0,12.0,72,0.00,CLR,,0.00,WeatherDisplay:10.37,2013-04-21 06:19:00,
2013-04-21 01:24:00,39.9,31.6,29.62,SSE,149,12.0,12.0,72,0.00,CLR,,0.00,WeatherDisplay:10.37,2013-04-21 06:24:00,
2013-04-21 01:29:00,39.9,31.6,29.62,SE,144,12.0,12.0,72,0.00,CLR,,0.00,WeatherDisplay:10.37,2013-04-21 06:29:00,
2013-04-21 01:34:00,39.7,31.1,29.62,SSE,149,12.0,12.0,71,0.00,CLR,,0.00,WeatherDisplay:10.37,2013-04-21 06:34:00,
2013-04-21 01:39:00,39.7,31.1,29.62,SSE,149,12.0,12.0,71,0.00,CLR,,0.00,WeatherDisplay:10.37,2013-04-21 06:39:00,
2013-04-21 01:44:00,39.7,31.1,29.62,SSE,149,13.0,13.0,71,0.00,CLR,,0.00,WeatherDisplay:10.37,2013-04-21 06:44:00,
2013-04-21 01:49:00,39.7,31.1,29.62,SSE,150,12.0,13.0,71,0.00,CLR,,0.00,WeatherDisplay:10.37,2013-04-21 06:49:00,
2013-04-21 01:54:00,39.6,30.9,29.62,SE,143,12.0,12.0,71,0.00,CLR,,0.00,WeatherDisplay:10.37,2013-04-21 06:54:00,
2013-04-21 01:59:00,39.4,30.8,29.62,SE,140,12.0,12.0,71,0.00,CLR,,0.00,WeatherDisplay:10.37,2013-04-21 06:59:00,
2013-04-21 02:04:00,39.4,30.8,29.65,SE,142,12.0,12.0,71,0.00,CLR,,0.00,WeatherDisplay:10.37,2013-04-21 07:04:00,
2013-04-21 02:09:00,39.4,30.8,29.65,SE,141,12.0,12.0,71,0.00,CLR,,0.00,WeatherDisplay:10.37,2013-04-21 07:09:00,
2013-04-21 02:14:00,39.6,30.9,29.62,SE,140,12.0,12.0,71,0.00,CLR,,0.00,WeatherDisplay:10.37,2013-04-21 07:14:00,
2013-04-21 02:19:00,39.6,30.9,29.62,SE,136,12.0,12.0,71,0.00,CLR,,0.00,WeatherDisplay:10.37,2013-04-21 07:19:00,
2013-04-21 02:24:00,39.7,30.8,29.62,SE,137,12.0,12.0,70,0.00,CLR,,0.00,WeatherDisplay:10.37,2013-04-21 07:24:00,
2013-04-21 02:29:00,39.7,30.8,29.62,SE,145,13.0,13.0,70,0.00,CLR,,0.00,WeatherDisplay:10.37,2013-04-21 07:29:00,
2013-04-21 02:34:00,39.9,30.6,29.65,SSE,152,13.0,13.0,69,0.00,CLR,,0.00,WeatherDisplay:10.37,2013-04-21 07:34:00,
2013-04-21 02:39:00,39.7,30.4,29.65,SSE,151,13.0,13.0,69,0.00,CLR,,0.00,WeatherDisplay:10.37,2013-04-21 07:39:00,
2013-04-21 02:44:00,39.7,30.4,29.65,SE,146,13.0,13.0,69,0.00,CLR,,0.00,WeatherDisplay:10.37,2013-04-21 07:44:00,
2013-04-21 02:49:00,39.7,30.4,29.65,SE,143,14.0,14.0,69,0.00,CLR,,0.00,WeatherDisplay:10.37,2013-04-21 07:49:00,
2013-04-21 02:54:00,39.7,30.4,29.65,SE,146,14.0,14.0,69,0.00,CLR,,0.00,WeatherDisplay:10.37,2013-04-21 07:54:00,
2013-04-21 02:59:00,39.7,30.4,29.65,SSE,150,14.0,14.0,69,0.00,CLR,,0.00,WeatherDisplay:10.37,2013-04-21 07:59:00,
2013-04-21 03:04:00,39.7,30.0,29.65,SE,146,14.0,14.0,68,0.00,CLR,,0.00,WeatherDisplay:10.37,2013-04-21 08:04:00,
2013-04-21 03:09:00,39.7,30.0,29.65,SE,145,14.0,14.0,68,0.00,CLR,,0.00,WeatherDisplay:10.37,2013-04-21 08:09:00,
2013-04-21 03:14:00,39.6,29.9,29.65,SE,143,15.0,15.0,68,0.00,CLR,,0.00,WeatherDisplay:10.37,2013-04-21 08:14:00,
2013-04-21 03:19:00,39.6,30.2,29.65,SE,141,15.0,15.0,69,0.00,CLR,,0.00,WeatherDisplay:10.37,2013-04-21 08:19:00,
2013-04-21 03:24:00,39.6,30.2,29.65,SE,141,15.0,15.0,69,0.00,CLR,,0.00,WeatherDisplay:10.37,2013-04-21 08:24:00,
2013-04-21 03:29:00,39.4,29.7,29.65,SE,145,15.0,15.0,68,0.00,CLR,,0.00,WeatherDisplay:10.37,2013-04-21 08:29:00,
2013-04-21 03:34:00,39.4,29.7,29.65,SE,141,15.0,15.0,68,0.00,CLR,,0.00,WeatherDisplay:10.37,2013-04-21 08:34:00,
2013-04-21 03:39:00,39.4,29.7,29.65,SE,141,15.0,15.0,68,0.00,CLR,,0.00,WeatherDisplay:10.37,2013-04-21 08:39:00,
2013-04-21 03:44:00,39.4,29.7,29.65,SE,146,15.0,15.0,68,0.00,CLR,,0.00,WeatherDisplay:10.37,2013-04-21 08:44:00,
2013-04-21 03:49:00,39.4,29.7,29.65,SE,145,15.0,15.0,68,0.00,CLR,,0.00,WeatherDisplay:10.37,2013-04-21 08:49:00,
2013-04-21 03:54:00,39.6,29.9,29.65,SE,144,15.0,15.0,68,0.00,CLR,,0.00,WeatherDisplay:10.37,2013-04-21 08:54:00,
2013-04-21 03:59:00,39.4,29.7,29.65,SE,143,15.0,15.0,68,0.00,CLR,,0.00,WeatherDisplay:10.37,2013-04-21 08:59:00,
2013-04-21 04:04:00,39.4,29.7,29.65,SE,138,15.0,15.0,68,0.00,CLR,,0.00,WeatherDisplay:10.37,2013-04-21 09:04:00,
2013-04-21 04:09:00,39.4,29.7,29.65,SE,139,15.0,15.0,68,0.00,CLR,,0.00,WeatherDisplay:10.37,2013-04-21 09:09:00,
2013-04-21 04:14:00,39.4,29.3,29.65,SE,140,15.0,15.0,67,0.00,CLR,,0.00,WeatherDisplay:10.37,2013-04-21 09:14:00,
2013-04-21 04:19:00,39.4,29.3,29.65,SE,144,15.0,15.0,67,0.00,CLR,,0.00,WeatherDisplay:10.37,2013-04-21 09:19:00,
2013-04-21 04:24:00,39.2,29.2,29.65,SE,144,15.0,15.0,67,0.00,CLR,,0.00,WeatherDisplay:10.37,2013-04-21 09:24:00,
2013-04-21 04:29:00,39.2,29.2,29.65,SE,145,15.0,15.0,67,0.00,CLR,,0.00,WeatherDisplay:10.37,2013-04-21 09:29:00,
2013-04-21 04:34:00,39.0,29.3,29.65,SE,140,15.0,15.0,68,0.00,CLR,,0.00,WeatherDisplay:10.37,2013-04-21 09:34:00,
2013-04-21 04:39:00,39.0,29.3,29.65,SE,138,15.0,15.0,68,0.00,CLR,,0.00,WeatherDisplay:10.37,2013-04-21 09:39:00,
2013-04-21 04:44:00,38.8,29.5,29.65,SE,137,15.0,15.0,69,0.00,CLR,,0.00,WeatherDisplay:10.37,2013-04-21 09:44:00,
2013-04-21 04:49:00,39.0,29.7,29.65,SE,138,15.0,15.0,69,0.00,CLR,,0.00,WeatherDisplay:10.37,2013-04-21 09:49:00,
2013-04-21 04:54:00,39.0,29.7,29.65,SE,140,15.0,15.0,69,0.00,CLR,,0.00,WeatherDisplay:10.37,2013-04-21 09:54:00,
2013-04-21 04:59:00,39.0,29.7,29.65,SE,144,15.0,15.0,69,0.00,CLR,,0.00,WeatherDisplay:10.37,2013-04-21 09:59:00,
2013-04-21 05:04:00,39.0,29.7,29.65,SE,143,15.0,15.0,69,0.00,CLR,,0.00,WeatherDisplay:10.37,2013-04-21 10:04:00,
2013-04-21 05:09:00,39.0,29.7,29.65,SE,143,15.0,15.0,69,0.00,CLR,,0.00,WeatherDisplay:10.37,2013-04-21 10:09:00,
2013-04-21 05:14:00,39.2,29.2,29.68,SE,143,15.0,15.0,67,0.00,CLR,,0.00,WeatherDisplay:10.37,2013-04-21 10:14:00,
2013-04-21 05:19:00,39.2,29.2,29.68,SE,144,15.0,15.0,67,0.00,CLR,,0.00,WeatherDisplay:10.37,2013-04-21 10:19:00,
2013-04-21 05:24:00,39.2,28.8,29.68,SE,142,15.0,15.0,66,0.00,CLR,,0.00,WeatherDisplay:10.37,2013-04-21 10:24:00,
2013-04-21 05:29:00,39.2,29.2,29.68,SE,140,16.0,16.0,67,0.00,CLR,,0.00,WeatherDisplay:10.37,2013-04-21 10:29:00,
2013-04-21 05:34:00,39.0,29.3,29.68,SE,138,15.0,16.0,68,0.00,CLR,,0.00,WeatherDisplay:10.37,2013-04-21 10:34:00,
2013-04-21 05:39:00,39.0,29.3,29.68,SE,141,15.0,15.0,68,0.00,CLR,,0.00,WeatherDisplay:10.37,2013-04-21 10:39:00,
2013-04-21 05:44:00,39.0,29.3,29.68,SSE,147,16.0,16.0,68,0.00,CLR,,0.00,WeatherDisplay:10.37,2013-04-21 10:44:00,
2013-04-21 05:49:00,39.2,28.8,29.68,SE,144,16.0,16.0,66,0.00,CLR,,0.00,WeatherDisplay:10.37,2013-04-21 10:49:00,
2013-04-21 05:54:00,39.2,28.8,29.68,SE,141,16.0,16.0,66,0.00,CLR,,0.00,WeatherDisplay:10.37,2013-04-21 10:54:00,
2013-04-21 05:59:00,39.0,29.3,29.68,SE,141,16.0,16.0,68,0.00,CLR,,0.00,WeatherDisplay:10.37,2013-04-21 10:59:00,
2013-04-21 06:04:00,39.0,29.3,29.68,SSE,147,16.0,16.0,68,0.00,CLR,,0.00,WeatherDisplay:10.37,2013-04-21 11:04:00,
2013-04-21 06:09:00,39.0,29.3,29.68,SE,146,16.0,16.0,68,0.00,CLR,,0.00,WeatherDisplay:10.37,2013-04-21 11:09:00,
2013-04-21 06:14:00,39.0,29.3,29.68,SE,146,16.0,16.0,68,0.00,CLR,,0.00,WeatherDisplay:10.37,2013-04-21 11:14:00,
2013-04-21 06:19:00,39.2,29.2,29.68,SE,144,17.0,17.0,67,0.00,CLR,,0.00,WeatherDisplay:10.37,2013-04-21 11:19:00,
2013-04-21 06:24:00,39.2,29.2,29.68,SE,140,17.0,17.0,67,0.00,CLR,,0.00,WeatherDisplay:10.37,2013-04-21 11:24:00,
2013-04-21 06:29:00,39.2,28.8,29.68,SE,143,17.0,17.0,66,0.00,CLR,,0.00,WeatherDisplay:10.37,2013-04-21 11:29:00,
2013-04-21 06:34:00,39.2,29.2,29.68,SE,144,17.0,17.0,67,0.00,CLR,,0.00,WeatherDisplay:10.37,2013-04-21 11:34:00,
2013-04-21 06:39:00,39.2,29.2,29.68,SE,143,17.0,17.0,67,0.00,CLR,,0.00,WeatherDisplay:10.37,2013-04-21 11:39:00,
2013-04-21 06:44:00,39.4,29.0,29.68,SE,140,17.0,17.0,66,0.00,CLR,,0.00,WeatherDisplay:10.37,2013-04-21 11:44:00,
2013-04-21 06:49:00,39.6,29.5,29.71,SE,141,17.0,17.0,67,0.00,CLR,,0.00,WeatherDisplay:10.37,2013-04-21 11:49:00,
2013-04-21 06:54:00,39.6,29.5,29.71,SE,142,17.0,17.0,67,0.00,CLR,,0.00,WeatherDisplay:10.37,2013-04-21 11:54:00,
2013-04-21 06:59:00,39.7,29.7,29.71,SE,144,17.0,17.0,67,0.00,CLR,,0.00,WeatherDisplay:10.37,2013-04-21 11:59:00,
2013-04-21 07:04:00,39.9,29.5,29.71,SSE,148,17.0,17.0,66,0.00,CLR,,0.00,WeatherDisplay:10.37,2013-04-21 12:04:00,
2013-04-21 07:09:00,39.9,29.8,29.71,SE,145,17.0,17.0,67,0.00,CLR,,0.00,WeatherDisplay:10.37,2013-04-21 12:09:00,
2013-04-21 07:14:00,39.9,29.8,29.71,SE,144,17.0,17.0,67,0.00,CLR,,0.00,WeatherDisplay:10.37,2013-04-21 12:14:00,
2013-04-21 07:19:00,40.3,29.8,29.71,SE,143,17.0,17.0,66,0.00,CLR,,0.00,WeatherDisplay:10.37,2013-04-21 12:19:00,
2013-04-21 07:24:00,40.3,29.8,29.71,SE,142,17.0,17.0,66,0.00,CLR,,0.00,WeatherDisplay:10.37,2013-04-21 12:24:00,
2013-04-21 07:29:00,40.5,30.0,29.71,SE,142,17.0,17.0,66,0.00,CLR,,0.00,WeatherDisplay:10.37,2013-04-21 12:29:00,
2013-04-21 07:34:00,40.8,30.3,29.71,SE,141,16.0,17.0,66,0.00,CLR,,0.00,WeatherDisplay:10.37,2013-04-21 12:34:00,
2013-04-21 07:39:00,40.8,30.3,29.71,SE,143,16.0,17.0,66,0.00,CLR,,0.00,WeatherDisplay:10.37,2013-04-21 12:39:00,
2013-04-21 07:44:00,41.2,29.9,29.71,SSE,147,16.0,17.0,64,0.00,CLR,,0.00,WeatherDisplay:10.37,2013-04-21 12:44:00,
2013-04-21 07:49:00,41.5,30.3,29.71,SE,143,17.0,17.0,64,0.00,CLR,,0.00,WeatherDisplay:10.37,2013-04-21 12:49:00,
2013-04-21 07:54:00,41.7,30.0,29.71,SE,142,17.0,17.0,63,0.00,CLR,,0.00,WeatherDisplay:10.37,2013-04-21 12:54:00,
2013-04-21 07:59:00,42.1,30.8,29.71,SE,143,16.0,17.0,64,0.00,CLR,,0.00,WeatherDisplay:10.37,2013-04-21 12:59:00,
2013-04-21 08:04:00,42.6,30.9,29.71,SE,143,16.0,16.0,63,0.00,CLR,,0.00,WeatherDisplay:10.37,2013-04-21 13:04:00,
2013-04-21 08:09:00,42.8,30.3,29.71,SE,145,16.0,16.0,61,0.00,CLR,,0.00,WeatherDisplay:10.37,2013-04-21 13:09:00,
2013-04-21 08:14:00,43.3,30.4,29.71,SSE,147,16.0,16.0,60,0.00,CLR,,0.00,WeatherDisplay:10.37,2013-04-21 13:14:00,
2013-04-21 08:19:00,43.7,30.7,29.71,SSE,148,16.0,16.0,60,0.00,CLR,,0.00,WeatherDisplay:10.37,2013-04-21 13:19:00,
2013-04-21 08:24:00,44.1,31.1,29.71,SSE,149,16.0,16.0,60,0.00,CLR,,0.00,WeatherDisplay:10.37,2013-04-21 13:24:00,
2013-04-21 08:29:00,44.4,31.4,29.71,SSE,148,16.0,16.0,60,0.00,CLR,,0.00,WeatherDisplay:10.37,2013-04-21 13:29:00,
2013-04-21 08:34:00,44.2,30.0,29.71,SSE,154,17.0,17.0,57,0.00,CLR,,0.00,WeatherDisplay:10.37,2013-04-21 13:34:00,
2013-04-21 08:39:00,44.2,30.4,29.71,SSE,155,17.0,17.0,58,0.00,CLR,,0.00,WeatherDisplay:10.37,2013-04-21 13:39:00,
2013-04-21 08:44:00,44.4,30.6,29.71,SSE,157,17.0,17.0,58,0.00,CLR,,0.00,WeatherDisplay:10.37,2013-04-21 13:44:00,
2013-04-21 08:49:00,45.0,30.6,29.71,SSE,160,17.0,18.0,57,0.00,CLR,,0.00,WeatherDisplay:10.37,2013-04-21 13:49:00,
2013-04-21 08:54:00,45.3,31.0,29.71,SSE,159,18.0,18.0,57,0.00,CLR,,0.00,WeatherDisplay:10.37,2013-04-21 13:54:00,
2013-04-21 08:59:00,45.5,31.1,29.71,SSE,156,18.0,18.0,57,0.00,CLR,,0.00,WeatherDisplay:10.37,2013-04-21 13:59:00,
2013-04-21 09:04:00,46.2,31.8,29.71,SSE,154,18.0,18.0,57,0.00,CLR,,0.00,WeatherDisplay:10.37,2013-04-21 14:04:00,
2013-04-21 09:09:00,46.0,31.2,29.71,SSE,153,18.0,18.0,56,0.00,CLR,,0.00,WeatherDisplay:10.37,2013-04-21 14:09:00,
2013-04-21 09:14:00,46.8,31.9,29.71,SSE,151,18.0,18.0,56,0.00,CLR,,0.00,WeatherDisplay:10.37,2013-04-21 14:14:00,
2013-04-21 09:19:00,47.1,32.7,29.71,SSE,152,18.0,18.0,57,0.00,CLR,,0.00,WeatherDisplay:10.37,2013-04-21 14:19:00,
2013-04-21 09:24:00,47.3,32.8,29.71,SSE,152,18.0,18.0,57,0.00,CLR,,0.00,WeatherDisplay:10.37,2013-04-21 14:24:00,
2013-04-21 09:29:00,46.9,31.6,29.71,SSE,159,18.0,19.0,55,0.00,CLR,,0.00,WeatherDisplay:10.37,2013-04-21 14:29:00,
2013-04-21 09:34:00,48.0,33.9,29.71,SSE,160,20.0,20.0,58,0.00,CLR,,0.00,WeatherDisplay:10.37,2013-04-21 14:34:00,
2013-04-21 09:39:00,48.4,33.8,29.71,SSE,158,20.0,20.0,57,0.00,CLR,,0.00,WeatherDisplay:10.37,2013-04-21 14:39:00,
2013-04-21 09:44:00,48.2,32.8,29.71,SSE,159,20.0,20.0,55,0.00,CLR,,0.00,WeatherDisplay:10.37,2013-04-21 14:44:00,
2013-04-21 09:49:00,48.7,33.3,29.71,SSE,154,20.0,20.0,55,0.00,CLR,,0.00,WeatherDisplay:10.37,2013-04-21 14:49:00,
2013-04-21 09:54:00,48.7,33.3,29.71,SSE,156,20.0,20.0,55,0.00,CLR,,0.00,WeatherDisplay:10.37,2013-04-21 14:54:00,
2013-04-21 09:59:00,48.7,33.3,29.71,SSE,160,21.0,21.0,55,0.00,CLR,,0.00,WeatherDisplay:10.37,2013-04-21 14:59:00,
2013-04-21 10:04:00,48.7,33.3,29.71,SSE,158,20.0,21.0,55,0.00,CLR,,0.00,WeatherDisplay:10.37,2013-04-21 15:04:00,
2013-04-21 10:09:00,49.6,34.6,29.71,SSE,156,20.0,20.0,56,0.00,CLR,,0.00,WeatherDisplay:10.37,2013-04-21 15:09:00,
2013-04-21 10:14:00,49.1,33.6,29.71,SSE,159,20.0,20.0,55,0.00,CLR,,0.00,WeatherDisplay:10.37,2013-04-21 15:14:00,
2013-04-21 10:19:00,49.1,34.1,29.71,SSE,165,20.0,20.0,56,0.00,CLR,,0.00,WeatherDisplay:10.37,2013-04-21 15:19:00,
2013-04-21 10:24:00,49.1,34.1,29.71,SSE,165,20.0,20.0,56,0.00,CLR,,0.00,WeatherDisplay:10.37,2013-04-21 15:24:00,
2013-04-21 10:29:00,50.0,34.5,29.71,SSE,161,21.0,21.0,55,0.00,CLR,,0.00,WeatherDisplay:10.37,2013-04-21 15:29:00,
2013-04-21 10:34:00,50.7,35.1,29.71,SSE,160,21.0,21.0,55,0.00,CLR,,0.00,WeatherDisplay:10.37,2013-04-21 15:34:00,
2013-04-21 10:39:00,50.7,34.7,29.71,SSE,159,21.0,21.0,54,0.00,CLR,,0.00,WeatherDisplay:10.37,2013-04-21 15:39:00,
2013-04-21 10:44:00,51.1,35.0,29.71,SSE,155,21.0,21.0,54,0.00,CLR,,0.00,WeatherDisplay:10.37,2013-04-21 15:44:00,
2013-04-21 10:49:00,51.1,35.0,29.71,SSE,156,21.0,21.0,54,0.00,CLR,,0.00,WeatherDisplay:10.37,2013-04-21 15:49:00,
2013-04-21 10:54:00,51.4,35.8,29.71,SSE,157,21.0,21.0,55,0.00,CLR,,0.00,WeatherDisplay:10.37,2013-04-21 15:54:00,
2013-04-21 10:59:00,51.3,35.2,29.71,SSE,158,20.0,20.0,54,0.00,CLR,,0.00,WeatherDisplay:10.37,2013-04-21 15:59:00,
2013-04-21 11:04:00,52.0,35.4,29.71,SSE,160,20.0,20.0,53,0.00,CLR,,0.00,WeatherDisplay:10.37,2013-04-21 16:04:00,
2013-04-21 11:09:00,52.0,35.4,29.71,SSE,158,20.0,20.0,53,0.00,CLR,,0.00,WeatherDisplay:10.37,2013-04-21 16:09:00,
2013-04-21 11:14:00,52.3,36.2,29.71,SSE,162,20.0,20.0,54,0.00,CLR,,0.00,WeatherDisplay:10.37,2013-04-21 16:14:00,
2013-04-21 11:19:00,52.0,35.4,29.71,South,169,20.0,20.0,53,0.00,CLR,,0.00,WeatherDisplay:10.37,2013-04-21 16:19:00,
2013-04-21 11:24:00,52.0,35.4,29.71,SSE,166,20.0,20.0,53,0.00,CLR,,0.00,WeatherDisplay:10.37,2013-04-21 16:24:00,
2013-04-21 11:29:00,52.9,36.7,29.71,SSE,160,20.0,20.0,54,0.00,CLR,,0.00,WeatherDisplay:10.37,2013-04-21 16:29:00,
2013-04-21 11:34:00,53.4,36.7,29.71,SSE,158,18.0,20.0,53,0.00,CLR,,0.00,WeatherDisplay:10.37,2013-04-21 16:34:00,
2013-04-21 11:39:00,54.3,37.5,29.71,SSE,155,18.0,19.0,53,0.00,CLR,,0.00,WeatherDisplay:10.37,2013-04-21 16:39:00,
2013-04-21 11:44:00,54.0,37.7,29.68,SSE,157,18.0,19.0,54,0.00,CLR,,0.00,WeatherDisplay:10.37,2013-04-21 16:44:00,
2013-04-21 11:49:00,53.6,36.4,29.68,SSE,161,18.0,19.0,52,0.00,CLR,,0.00,WeatherDisplay:10.37,2013-04-21 16:49:00,
2013-04-21 11:54:00,54.0,37.2,29.68,SSE,160,18.0,19.0,53,0.00,CLR,,0.00,WeatherDisplay:10.37,2013-04-21 16:54:00,
2013-04-21 11:59:00,54.3,37.1,29.68,SSE,160,18.0,19.0,52,0.00,CLR,,0.00,WeatherDisplay:10.37,2013-04-21 16:59:00,
2013-04-21 12:04:00,54.5,37.2,29.68,SSE,155,18.0,18.0,52,0.00,CLR,,0.00,WeatherDisplay:10.37,2013-04-21 17:04:00,
2013-04-21 12:09:00,54.0,36.2,29.68,SSE,157,18.0,18.0,51,0.00,CLR,,0.00,WeatherDisplay:10.37,2013-04-21 17:09:00,
2013-04-21 12:14:00,54.3,36.6,29.68,SSE,165,18.0,18.0,51,0.00,CLR,,0.00,WeatherDisplay:10.37,2013-04-21 17:14:00,
2013-04-21 12:19:00,54.9,37.6,29.68,SSE,164,18.0,18.0,52,0.00,CLR,,0.00,WeatherDisplay:10.37,2013-04-21 17:19:00,
2013-04-21 12:24:00,54.7,37.4,29.68,SSE,160,18.0,18.0,52,0.00,CLR,,0.00,WeatherDisplay:10.37,2013-04-21 17:24:00,
2013-04-21 12:29:00,54.9,37.1,29.68,SSE,164,18.0,18.0,51,0.00,CLR,,0.00,WeatherDisplay:10.37,2013-04-21 17:29:00,
2013-04-21 12:34:00,55.0,37.7,29.68,South,170,18.0,18.0,52,0.00,CLR,,0.00,WeatherDisplay:10.37,2013-04-21 17:34:00,
2013-04-21 12:39:00,55.6,37.2,29.68,SSE,166,18.0,18.0,50,0.00,CLR,,0.00,WeatherDisplay:10.37,2013-04-21 17:39:00,
2013-04-21 12:44:00,55.8,36.9,29.68,SSE,160,18.0,18.0,49,0.00,CLR,,0.00,WeatherDisplay:10.37,2013-04-21 17:44:00,
2013-04-21 12:49:00,59.4,39.7,29.65,SSE,163,17.0,18.0,48,0.00,CLR,,0.00,WeatherDisplay:10.37,2013-04-21 17:49:00,
2013-04-21 12:54:00,57.9,37.8,29.65,SSE,163,17.0,18.0,47,0.00,CLR,,0.00,WeatherDisplay:10.37,2013-04-21 17:54:00,
2013-04-21 12:59:00,59.0,39.3,29.65,SSE,157,17.0,18.0,48,0.00,CLR,,0.00,WeatherDisplay:10.37,2013-04-21 17:59:00,
2013-04-21 13:04:00,58.5,38.3,29.65,SSE,159,17.0,17.0,47,0.00,CLR,,0.00,WeatherDisplay:10.37,2013-04-21 18:04:00,
2013-04-21 13:09:00,59.0,38.8,29.65,SSE,155,17.0,17.0,47,0.00,CLR,,0.00,WeatherDisplay:10.37,2013-04-21 18:09:00,
2013-04-21 13:14:00,58.5,38.3,29.65,SSE,159,16.0,17.0,47,0.00,CLR,,0.00,WeatherDisplay:10.37,2013-04-21 18:14:00,
2013-04-21 13:19:00,59.0,38.8,29.65,SSE,156,16.0,17.0,47,0.00,CLR,,0.00,WeatherDisplay:10.37,2013-04-21 18:19:00,
2013-04-21 13:24:00,59.2,38.9,29.65,SSE,154,16.0,16.0,47,0.00,CLR,,0.00,WeatherDisplay:10.37,2013-04-21 18:24:00,
2013-04-21 13:29:00,58.1,37.4,29.65,SSE,165,16.0,16.0,46,0.00,CLR,,0.00,WeatherDisplay:10.37,2013-04-21 18:29:00,
2013-04-21 13:34:00,58.6,38.5,29.65,SSE,166,16.0,16.0,47,0.00,CLR,,0.00,WeatherDisplay:10.37,2013-04-21 18:34:00,
2013-04-21 13:39:00,60.3,39.4,29.65,SSE,158,16.0,16.0,46,0.00,CLR,,0.00,WeatherDisplay:10.37,2013-04-21 18:39:00,
2013-04-21 13:44:00,61.9,40.3,29.65,SSE,155,16.0,16.0,45,0.00,CLR,,0.00,WeatherDisplay:10.37,2013-04-21 18:44:00,
2013-04-21 13:49:00,61.7,40.7,29.62,South,172,16.0,16.0,46,0.00,CLR,,0.00,WeatherDisplay:10.37,2013-04-21 18:49:00,
2013-04-21 13:54:00,59.7,38.3,29.62,South,175,16.0,16.0,45,0.00,CLR,,0.00,WeatherDisplay:10.37,2013-04-21 18:54:00,
2013-04-21 13:59:00,61.7,40.1,29.62,South,169,16.0,16.0,45,0.00,CLR,,0.00,WeatherDisplay:10.37,2013-04-21 18:59:00,
2013-04-21 14:04:00,63.5,41.8,29.62,SSE,166,16.0,16.0,45,0.00,CLR,,0.00,WeatherDisplay:10.37,2013-04-21 19:04:00,
2013-04-21 14:09:00,63.5,41.8,29.62,SSE,164,16.0,16.0,45,0.00,CLR,,0.00,WeatherDisplay:10.37,2013-04-21 19:09:00,
2013-04-21 14:14:00,63.5,41.8,29.62,SSE,152,15.0,15.0,45,0.00,CLR,,0.00,WeatherDisplay:10.37,2013-04-21 19:14:00,
2013-04-21 14:19:00,66.7,41.6,29.62,SSE,153,15.0,15.0,40,0.00,CLR,,0.00,WeatherDisplay:10.37,2013-04-21 19:19:00,
2013-04-21 14:24:00,66.7,41.6,29.62,SSE,160,15.0,15.0,40,0.00,CLR,,0.00,WeatherDisplay:10.37,2013-04-21 19:24:00,
2013-04-21 14:29:00,66.7,41.6,29.62,South,169,15.0,15.0,40,0.00,CLR,,0.00,WeatherDisplay:10.37,2013-04-21 19:29:00,
2013-04-21 14:34:00,63.1,39.0,29.62,South,172,15.0,15.0,41,0.00,CLR,,0.00,WeatherDisplay:10.37,2013-04-21 19:34:00,
2013-04-21 14:39:00,63.1,39.0,29.62,South,170,15.0,15.0,41,0.00,CLR,,0.00,WeatherDisplay:10.37,2013-04-21 19:39:00,
2013-04-21 14:44:00,62.6,40.4,29.62,South,170,15.0,15.0,44,0.00,CLR,,0.00,WeatherDisplay:10.37,2013-04-21 19:44:00,
2013-04-21 14:49:00,62.1,39.3,29.62,South,172,15.0,15.0,43,0.00,CLR,,0.00,WeatherDisplay:10.37,2013-04-21 19:49:00,
2013-04-21 14:54:00,62.4,41.4,29.62,South,171,16.0,16.0,46,0.00,CLR,,0.00,WeatherDisplay:10.37,2013-04-21 19:54:00,
2013-04-21 14:59:00,61.3,39.8,29.62,South,172,16.0,16.0,45,0.00,CLR,,0.00,WeatherDisplay:10.37,2013-04-21 19:59:00,
2013-04-21 15:04:00,62.1,39.9,29.62,South,169,16.0,16.0,44,0.00,CLR,,0.00,WeatherDisplay:10.37,2013-04-21 20:04:00,
2013-04-21 15:09:00,64.6,42.7,29.62,SSE,166,15.0,16.0,45,0.00,CLR,,0.00,WeatherDisplay:10.37,2013-04-21 20:09:00,
2013-04-21 15:14:00,65.1,40.8,29.62,South,169,15.0,15.0,41,0.00,CLR,,0.00,WeatherDisplay:10.37,2013-04-21 20:14:00,
2013-04-21 15:19:00,64.4,40.2,29.62,South,170,15.0,15.0,41,0.00,CLR,,0.00,WeatherDisplay:10.37,2013-04-21 20:19:00,
2013-04-21 15:24:00,64.0,40.5,29.62,SSE,167,15.0,15.0,42,0.00,CLR,,0.00,WeatherDisplay:10.37,2013-04-21 20:24:00,
2013-04-21 15:29:00,63.1,39.7,29.59,SSE,166,15.0,15.0,42,0.00,CLR,,0.00,WeatherDisplay:10.37,2013-04-21 20:29:00,
2013-04-21 15:34:00,62.8,40.5,29.59,SSE,168,15.0,15.0,44,0.00,CLR,,0.00,WeatherDisplay:10.37,2013-04-21 20:34:00,
2013-04-21 15:39:00,63.1,40.9,29.59,SSE,159,15.0,15.0,44,0.00,CLR,,0.00,WeatherDisplay:10.37,2013-04-21 20:39:00,
2013-04-21 15:44:00,64.0,41.7,29.59,SSE,154,15.0,15.0,44,0.00,CLR,,0.00,WeatherDisplay:10.37,2013-04-21 20:44:00,
2013-04-21 15:49:00,64.8,41.1,29.59,SSE,160,15.0,15.0,42,0.00,CLR,,0.00,WeatherDisplay:10.37,2013-04-21 20:49:00,
2013-04-21 15:54:00,64.0,40.5,29.59,SSE,166,15.0,15.0,42,0.00,CLR,,0.00,WeatherDisplay:10.37,2013-04-21 20:54:00,
2013-04-21 15:59:00,64.8,41.7,29.59,South,171,15.0,15.0,43,0.00,CLR,,0.00,WeatherDisplay:10.37,2013-04-21 20:59:00,
2013-04-21 16:04:00,67.3,42.8,29.59,SSE,154,15.0,15.0,41,0.00,CLR,,0.00,WeatherDisplay:10.37,2013-04-21 21:04:00,
2013-04-21 16:09:00,67.3,42.1,29.59,SSE,152,15.0,15.0,40,0.00,CLR,,0.00,WeatherDisplay:10.37,2013-04-21 21:09:00,
2013-04-21 16:14:00,67.6,42.4,29.59,SSE,167,15.0,15.0,40,0.00,CLR,,0.00,WeatherDisplay:10.37,2013-04-21 21:14:00,
2013-04-21 16:19:00,67.1,41.3,29.59,SSE,162,15.0,15.0,39,0.00,CLR,,0.00,WeatherDisplay:10.37,2013-04-21 21:19:00,
2013-04-21 16:24:00,65.7,41.3,29.59,SSE,154,15.0,15.0,41,0.00,CLR,,0.00,WeatherDisplay:10.37,2013-04-21 21:24:00,
2013-04-21 16:29:00,66.4,42.6,29.56,SSE,151,15.0,15.0,42,0.00,CLR,,0.00,WeatherDisplay:10.37,2013-04-21 21:29:00,
2013-04-21 16:34:00,67.6,43.1,29.56,SSE,152,15.0,15.0,41,0.00,CLR,,0.00,WeatherDisplay:10.37,2013-04-21 21:34:00,
2013-04-21 16:39:00,68.9,44.2,29.56,SSE,149,15.0,15.0,41,0.00,CLR,,0.00,WeatherDisplay:10.37,2013-04-21 21:39:00,
2013-04-21 16:44:00,66.9,41.8,29.56,SSE,149,15.0,15.0,40,0.00,CLR,,0.00,WeatherDisplay:10.37,2013-04-21 21:44:00,
2013-04-21 16:49:00,67.1,42.6,29.56,SSE,155,15.0,15.0,41,0.00,SCT,,0.00,WeatherDisplay:10.37,2013-04-21 21:49:00,
2013-04-21 16:54:00,66.9,41.8,29.56,SSE,152,15.0,15.0,40,0.00,SCT,,0.00,WeatherDisplay:10.37,2013-04-21 21:54:00,
2013-04-21 16:59:00,66.4,41.3,29.56,SSE,154,15.0,15.0,40,0.00,SCT,,0.00,WeatherDisplay:10.37,2013-04-21 21:59:00,
2013-04-21 17:04:00,64.0,40.5,29.56,SSE,155,14.0,15.0,42,0.00,SCT,,0.00,WeatherDisplay:10.37,2013-04-21 22:04:00,
2013-04-21 17:09:00,63.1,39.0,29.56,SSE,149,14.0,14.0,41,0.00,SCT,,0.00,WeatherDisplay:10.37,2013-04-21 22:09:00,
2013-04-21 17:14:00,61.9,39.1,29.56,SSE,149,14.0,14.0,43,0.00,SCT,,0.00,WeatherDisplay:10.37,2013-04-21 22:14:00,
2013-04-21 17:19:00,61.2,39.1,29.56,SSE,154,14.0,14.0,44,0.00,SCT,,0.00,WeatherDisplay:10.37,2013-04-21 22:19:00,
2013-04-21 17:24:00,62.1,40.5,29.56,SSE,151,15.0,15.0,45,0.00,SCT,,0.00,WeatherDisplay:10.37,2013-04-21 22:24:00,
2013-04-21 17:29:00,62.8,41.1,29.56,SE,141,15.0,15.0,45,0.00,SCT,,0.00,WeatherDisplay:10.37,2013-04-21 22:29:00,
2013-04-21 17:34:00,62.4,41.4,29.56,SE,144,15.0,15.0,46,0.00,CLR,,0.00,WeatherDisplay:10.37,2013-04-21 22:34:00,
2013-04-21 17:39:00,62.4,41.4,29.56,SE,143,15.0,15.0,46,0.00,CLR,,0.00,WeatherDisplay:10.37,2013-04-21 22:39:00,
2013-04-21 17:44:00,61.5,40.5,29.56,SSE,148,15.0,15.0,46,0.00,CLR,,0.00,WeatherDisplay:10.37,2013-04-21 22:44:00,
2013-04-21 17:49:00,61.2,39.6,29.56,SSE,154,15.0,15.0,45,0.00,CLR,,0.00,WeatherDisplay:10.37,2013-04-21 22:49:00,
2013-04-21 17:54:00,61.0,40.0,29.56,SSE,153,15.0,15.0,46,0.00,CLR,,0.00,WeatherDisplay:10.37,2013-04-21 22:54:00,
2013-04-21 17:59:00,60.8,39.9,29.56,SSE,153,15.0,15.0,46,0.00,CLR,,0.00,WeatherDisplay:10.37,2013-04-21 22:59:00,
2013-04-21 18:04:00,60.4,39.5,29.56,SSE,154,15.0,16.0,46,0.00,CLR,,0.00,WeatherDisplay:10.37,2013-04-21 23:04:00,
2013-04-21 18:09:00,60.1,40.3,29.56,SSE,160,16.0,16.0,48,0.00,CLR,,0.00,WeatherDisplay:10.37,2013-04-21 23:09:00,
2013-04-21 18:14:00,59.9,40.1,29.56,SSE,160,15.0,15.0,48,0.00,CLR,,0.00,WeatherDisplay:10.37,2013-04-21 23:14:00,
2013-04-21 18:19:00,59.7,40.0,29.56,SSE,148,15.0,16.0,48,0.00,CLR,,0.00,WeatherDisplay:10.37,2013-04-21 23:19:00,
2013-04-21 18:24:00,59.5,40.3,29.56,SE,143,15.0,15.0,49,0.00,CLR,,0.00,WeatherDisplay:10.37,2013-04-21 23:24:00,
2013-04-21 18:29:00,59.0,38.8,29.56,SE,145,15.0,15.0,47,0.00,CLR,,0.00,WeatherDisplay:10.37,2013-04-21 23:29:00,
2013-04-21 18:34:00,59.0,39.9,29.56,SE,145,15.0,15.0,49,0.00,CLR,,0.00,WeatherDisplay:10.37,2013-04-21 23:34:00,
2013-04-21 18:39:00,59.0,39.9,29.56,SE,143,15.0,15.0,49,0.00,CLR,,0.00,WeatherDisplay:10.37,2013-04-21 23:39:00,
2013-04-21 18:44:00,59.4,39.7,29.56,SE,140,15.0,15.0,48,0.00,CLR,,0.00,WeatherDisplay:10.37,2013-04-21 23:44:00,
2013-04-21 18:49:00,58.3,39.7,29.56,SE,140,15.0,15.0,50,0.00,CLR,,0.00,WeatherDisplay:10.37,2013-04-21 23:49:00,
2013-04-21 18:54:00,58.1,39.5,29.56,SE,142,15.0,15.0,50,0.00,CLR,,0.00,WeatherDisplay:10.37,2013-04-21 23:54:00,
2013-04-21 18:59:00,57.4,38.9,29.56,SE,140,14.0,15.0,50,0.00,CLR,,0.00,WeatherDisplay:10.37,2013-04-21 23:59:00,
2013-04-21 19:04:00,56.7,37.7,29.56,SE,143,14.0,14.0,49,0.00,CLR,,0.00,WeatherDisplay:10.37,2013-04-22 00:04:00,
2013-04-21 19:09:00,56.5,38.1,29.56,SE,142,14.0,14.0,50,0.00,CLR,,0.00,WeatherDisplay:10.37,2013-04-22 00:09:00,
2013-04-21 19:14:00,55.8,37.4,29.56,SE,140,14.0,14.0,50,0.00,CLR,,0.00,WeatherDisplay:10.37,2013-04-22 00:14:00,
2013-04-21 19:19:00,55.6,37.7,29.56,SE,135,14.0,14.0,51,0.00,CLR,,0.00,WeatherDisplay:10.37,2013-04-22 00:19:00,
2013-04-21 19:24:00,55.6,37.7,29.56,SE,135,14.0,14.0,51,0.00,CLR,,0.00,WeatherDisplay:10.37,2013-04-22 00:24:00,
2013-04-21 19:29:00,54.7,38.4,29.56,SE,132,13.0,14.0,54,0.00,CLR,,0.00,WeatherDisplay:10.37,2013-04-22 00:29:00,
2013-04-21 19:34:00,54.5,38.2,29.56,SE,131,13.0,13.0,54,0.00,CLR,,0.00,WeatherDisplay:10.37,2013-04-22 00:34:00,
2013-04-21 19:39:00,54.1,38.3,29.56,SE,132,13.0,13.0,55,0.00,CLR,,0.00,WeatherDisplay:10.37,2013-04-22 00:39:00,
2013-04-21 19:44:00,53.8,38.0,29.56,SE,135,12.0,13.0,55,0.00,CLR,,0.00,WeatherDisplay:10.37,2013-04-22 00:44:00,
2013-04-21 19:49:00,53.2,38.4,29.56,SE,137,12.0,12.0,57,0.00,CLR,,0.00,WeatherDisplay:10.37,2013-04-22 00:49:00,
2013-04-21 19:54:00,53.2,38.4,29.56,SE,138,12.0,12.0,57,0.00,CLR,,0.00,WeatherDisplay:10.37,2013-04-22 00:54:00,
2013-04-21 19:59:00,52.7,38.3,29.56,SE,135,12.0,12.0,58,0.00,CLR,,0.00,WeatherDisplay:10.37,2013-04-22 00:59:00,
2013-04-21 20:04:00,52.5,38.6,29.56,SE,137,12.0,12.0,59,0.00,CLR,,0.00,WeatherDisplay:10.37,2013-04-22 01:04:00,
2013-04-21 20:09:00,52.3,38.4,29.56,SE,137,12.0,12.0,59,0.00,CLR,,0.00,WeatherDisplay:10.37,2013-04-22 01:09:00,
2013-04-21 20:14:00,52.2,38.3,29.56,SE,135,10.0,12.0,59,0.00,CLR,,0.00,WeatherDisplay:10.37,2013-04-22 01:14:00,
2013-04-21 20:19:00,51.8,38.3,29.56,SE,135,10.0,12.0,60,0.00,CLR,,0.00,WeatherDisplay:10.37,2013-04-22 01:19:00,
2013-04-21 20:24:00,51.8,38.3,29.56,SE,135,10.0,11.0,60,0.00,CLR,,0.00,WeatherDisplay:10.37,2013-04-22 01:24:00,
2013-04-21 20:29:00,51.6,38.6,29.56,SE,137,10.0,11.0,61,0.00,CLR,,0.00,WeatherDisplay:10.37,2013-04-22 01:29:00,
2013-04-21 20:34:00,51.4,38.0,29.56,SE,138,12.0,12.0,60,0.00,CLR,,0.00,WeatherDisplay:10.37,2013-04-22 01:34:00,
2013-04-21 20:39:00,51.4,38.0,29.56,SE,136,12.0,12.0,60,0.00,CLR,,0.00,WeatherDisplay:10.37,2013-04-22 01:39:00,
2013-04-21 20:44:00,51.4,38.0,29.56,SE,131,12.0,12.0,60,0.00,CLR,,0.00,WeatherDisplay:10.37,2013-04-22 01:44:00,
2013-04-21 20:49:00,51.4,38.0,29.56,SE,134,12.0,12.0,60,0.00,CLR,,0.00,WeatherDisplay:10.37,2013-04-22 01:49:00,
2013-04-21 20:54:00,51.4,38.0,29.56,SE,136,12.0,12.0,60,0.00,CLR,,0.00,WeatherDisplay:10.37,2013-04-22 01:54:00,
2013-04-21 20:59:00,51.4,38.0,29.56,SE,139,12.0,12.0,60,0.00,CLR,,0.00,WeatherDisplay:10.37,2013-04-22 01:59:00,
2013-04-21 21:04:00,51.4,38.0,29.56,SE,138,12.0,12.0,60,0.00,CLR,,0.00,WeatherDisplay:10.37,2013-04-22 02:04:00,
2013-04-21 21:09:00,51.4,38.0,29.56,SE,141,13.0,13.0,60,0.00,CLR,,0.00,WeatherDisplay:10.37,2013-04-22 02:09:00,
2013-04-21 21:14:00,51.4,38.0,29.56,SE,145,13.0,13.0,60,0.00,CLR,,0.00,WeatherDisplay:10.37,2013-04-22 02:14:00,
2013-04-21 21:19:00,51.3,38.3,29.56,SE,138,13.0,13.0,61,0.00,CLR,,0.00,WeatherDisplay:10.37,2013-04-22 02:19:00,
2013-04-21 21:24:00,51.1,38.1,29.56,SE,135,13.0,13.0,61,0.00,CLR,,0.00,WeatherDisplay:10.37,2013-04-22 02:24:00,
2013-04-21 21:29:00,50.9,37.9,29.56,SE,135,13.0,13.0,61,0.00,CLR,,0.00,WeatherDisplay:10.37,2013-04-22 02:29:00,
2013-04-21 21:34:00,50.7,38.2,29.56,SE,135,12.0,13.0,62,0.00,CLR,,0.00,WeatherDisplay:10.37,2013-04-22 02:34:00,
2013-04-21 21:39:00,50.7,38.2,29.56,SE,135,12.0,12.0,62,0.00,CLR,,0.00,WeatherDisplay:10.37,2013-04-22 02:39:00,
2013-04-21 21:44:00,50.7,37.8,29.56,SE,135,12.0,12.0,61,0.00,CLR,,0.00,WeatherDisplay:10.37,2013-04-22 02:44:00,
2013-04-21 21:49:00,50.7,37.8,29.56,SE,140,12.0,12.0,61,0.00,CLR,,0.00,WeatherDisplay:10.37,2013-04-22 02:49:00,
2013-04-21 21:54:00,50.9,37.9,29.56,SE,140,13.0,13.0,61,0.00,CLR,,0.00,WeatherDisplay:10.37,2013-04-22 02:54:00,
2013-04-21 21:59:00,50.7,37.3,29.56,SE,138,13.0,13.0,60,0.00,CLR,,0.00,WeatherDisplay:10.37,2013-04-22 02:59:00,
2013-04-21 22:04:00,50.7,36.9,29.56,SE,139,13.0,13.0,59,0.00,CLR,,0.00,WeatherDisplay:10.37,2013-04-22 03:04:00,
2013-04-21 22:09:00,50.5,36.7,29.56,SE,138,13.0,13.0,59,0.00,CLR,,0.00,WeatherDisplay:10.37,2013-04-22 03:09:00,
2013-04-21 22:14:00,50.5,36.3,29.56,SE,142,13.0,13.0,58,0.00,CLR,,0.00,WeatherDisplay:10.37,2013-04-22 03:14:00,
2013-04-21 22:19:00,50.4,36.1,29.56,SE,144,13.0,13.0,58,0.00,CLR,,0.00,WeatherDisplay:10.37,2013-04-22 03:19:00,
2013-04-21 22:24:00,50.4,36.1,29.56,SE,142,13.0,13.0,58,0.00,CLR,,0.00,WeatherDisplay:10.37,2013-04-22 03:24:00,
2013-04-21 22:29:00,50.4,36.1,29.56,SE,141,13.0,13.0,58,0.00,CLR,,0.00,WeatherDisplay:10.37,2013-04-22 03:29:00,
2013-04-21 22:34:00,50.5,35.9,29.56,SE,141,13.0,13.0,57,0.00,CLR,,0.00,WeatherDisplay:10.37,2013-04-22 03:34:00,
2013-04-21 22:39:00,50.5,35.9,29.56,SE,143,14.0,14.0,57,0.00,CLR,,0.00,WeatherDisplay:10.37,2013-04-22 03:39:00,
2013-04-21 22:44:00,50.5,35.9,29.56,SE,146,14.0,14.0,57,0.00,CLR,,0.00,WeatherDisplay:10.37,2013-04-22 03:44:00,
2013-04-21 22:49:00,50.5,35.9,29.56,SSE,148,14.0,14.0,57,0.00,CLR,,0.00,WeatherDisplay:10.37,2013-04-22 03:49:00,
2013-04-21 22:54:00,50.5,35.9,29.56,SE,144,14.0,14.0,57,0.00,CLR,,0.00,WeatherDisplay:10.37,2013-04-22 03:54:00,
2013-04-21 22:59:00,50.2,36.0,29.56,SE,138,13.0,13.0,58,0.00,CLR,,0.00,WeatherDisplay:10.37,2013-04-22 03:59:00,
2013-04-21 23:04:00,50.2,36.0,29.56,SE,142,12.0,13.0,58,0.00,SCT,,0.00,WeatherDisplay:10.37,2013-04-22 04:04:00,
2013-04-21 23:09:00,50.2,36.0,29.56,SE,141,12.0,12.0,58,0.00,SCT,,0.00,WeatherDisplay:10.37,2013-04-22 04:09:00,
2013-04-21 23:14:00,50.0,35.8,29.56,SE,142,10.0,12.0,58,0.00,SCT,,0.00,WeatherDisplay:10.37,2013-04-22 04:14:00,
2013-04-21 23:19:00,49.8,36.5,29.56,SE,143,10.0,11.0,60,0.00,SCT,,0.00,WeatherDisplay:10.37,2013-04-22 04:19:00,
2013-04-21 23:24:00,49.6,36.7,29.56,SE,143,9.0,10.0,61,0.00,SCT,,0.00,WeatherDisplay:10.37,2013-04-22 04:24:00,
2013-04-21 23:29:00,49.5,36.6,29.56,SE,145,9.0,9.0,61,0.00,SCT,,0.00,WeatherDisplay:10.37,2013-04-22 04:29:00,
2013-04-21 23:34:00,48.9,36.5,29.56,SE,145,8.0,9.0,62,0.00,SCT,,0.00,WeatherDisplay:10.37,2013-04-22 04:34:00,
2013-04-21 23:39:00,48.7,36.7,29.56,SSE,148,8.0,8.0,63,0.00,SCT,,0.00,WeatherDisplay:10.37,2013-04-22 04:39:00,
2013-04-21 23:44:00,48.2,37.0,29.56,SSE,157,7.0,8.0,65,0.00,SCT,,0.00,WeatherDisplay:10.37,2013-04-22 04:44:00,
2013-04-21 23:49:00,47.8,37.4,29.56,SSE,160,7.0,7.0,67,0.00,SCT,,0.00,WeatherDisplay:10.37,2013-04-22 04:49:00,
2013-04-21 23:54:00,47.7,37.2,29.56,SSE,160,7.0,7.0,67,0.00,SCT,,0.00,WeatherDisplay:10.37,2013-04-22 04:54:00,
2013-04-21 23:59:00,47.5,37.4,29.56,SSE,158,7.0,7.0,68,0.00,SCT,,0.00,WeatherDisplay:10.37,2013-04-22 04:59:00,